This demonstration page uses our WeatherBlox Daily Observations layout. Learn more.

Left ArrowRight Arrow

Hourly Observations for May 18, 2022

Temp ( °F °C ) Dew Point ( °F °C ) Humidity (%) Winds ( mph kmh ) Pressure ( in mb ) Visibility ( mi km ) Precip ( " mm )
12:59 am 00:59 Clear 70 21.1 52 11.1 53 53 SW 3 6 29.93 1014 10 16 0.00 0.00
1:59 am 01:59 Clear 68 20 53 11.7 59 59 W 7 11 29.94 1014 10 16 0.00 0.00
2:59 am 02:59 Clear 67 19.4 56 13.3 68 68 NNW 8 13 29.96 1014 10 16 0.00 0.00
3:59 am 03:59 Clear 68 20 57 13.9 68 68 NNE 8 13 29.97 1015 10 16 0.00 0.00
4:59 am 04:59 Clear 66 18.9 58 14.4 75 75 NNE 7 11 29.99 1016 10 16 0.00 0.00
5:59 am 05:59 Sunny 65 18.3 56 13.3 73 73 NNE 6 9 30.00 1016 10 16 0.00 0.00
6:59 am 06:59 Sunny 67 19.4 57 13.9 71 71 NNE 6 9 30.02 1017 10 16 0.00 0.00
7:59 am 07:59 Sunny 68 20 50 10 53 53 NE 12 19 30.05 1018 10 16 0.00 0.00
8:59 am 08:59 Sunny 68 20 49 9.4 51 51 ENE 10 17 30.07 1018 10 16 0.00 0.00
9:59 am 09:59 Sunny 69 20.6 46 7.8 44 44 ENE 10 17 30.09 1019 10 16 0.00 0.00
10:59 am 10:59 Mostly Sunny 69 20.6 45 7.2 42 42 E 9 15 30.09 1019 10 16 0.00 0.00
11:59 am 11:59 Partly Cloudy 70 21.1 46 7.8 42 42 E 7 11 30.07 1018 10 16 0.00 0.00
12:59 pm 12:59 Sunny 71 21.7 44 6.7 38 38 E 10 17 30.06 1018 10 16 0.00 0.00
1:59 pm 13:59 Mostly Sunny 71 21.7 44 6.7 38 38 ENE 10 17 30.05 1018 10 16 0.00 0.00
2:59 pm 14:59 Sunny 72 22.2 48 8.9 43 43 ENE 12 19 30.02 1017 10 16 0.00 0.00
3:59 pm 15:59 Sunny 74 23.3 48 8.9 40 40 ESE 13 20 30.00 1016 10 16 0.00 0.00
4:59 pm 16:59 Mostly Sunny 75 23.9 50 10 41 41 SE 9 15 29.98 1015 10 16 0.00 0.00
5:59 pm 17:59 Partly Cloudy 73 22.8 51 10.6 46 46 SE 9 15 29.97 1015 10 16 0.00 0.00
6:59 pm 18:59 Partly Cloudy 70 21.1 48 8.9 46 46 SSE 7 11 29.94 1014 10 16 0.00 0.00
7:59 pm 19:59 Partly Cloudy 67 19.4 48 8.9 51 51 SSE 8 13 29.93 1014 10 16 0.00 0.00
8:59 pm 20:59 Mostly Cloudy 66 18.9 48 8.9 52 52 SSE 10 17 29.94 1014 10 16 0.00 0.00
9:59 pm 21:59 Mostly Cloudy 66 18.9 50 10 56 56 SSE 10 17 29.94 1014 10 16 0.00 0.00
10:59 pm 22:59 Mostly Cloudy 65 18.3 51 10.6 61 61 SSE 12 19 29.92 1013 10 16 0.00 0.00
11:59 pm 23:59 Mostly Cloudy 67 19.4 52 11.1 59 59 SSE 9 15 29.91 1013 10 16 0.00 0.00

Powered by AerisWeather